Tracking 29594 objects as of 20-Sep-2024
HD Live streaming from Space Station
objects crossing your sky now

STARLINK-5270

Track STARLINK-5270 now!
10-day predictions
STARLINK-5270 is classified as:


NORAD ID: 55299
Int'l Code: 2023-010AG
Perigee: 577.0 km
Apogee: 581.3 km
Inclination: 70.0 °
Period: 96.1 minutes
Semi major axis: 6950 km
RCS: Unknown
Launch date: January 19, 2023
Source: United States (US)
Launch site: AIR FORCE WESTERN TEST RANGE (AFWTR)
Your satellite tracking list
Your tracking list is empty




NASA's NSSDC Master Catalog

Two Line Element Set (TLE):
1 55299U 23010AG  24264.34801324 -.00000267  00000-0 -14609-4 0  9990
2 55299  69.9977 294.1021 0003066 269.8122  90.2686 14.98335210 93967
Source of the keplerian elements: AFSPC